Regional Weather Roundup
Issued by NWS

Home | Current Version | Previous Version | Graphics & Text | Print | Product List | Glossary Off
Versions: 1 2 3 4 5 6 7 8 9 10 11 12 13 14 15 16 17 18 19 20 21 22 23 24 25 26 27 28 29 30 31 32 33 34 35 36 37 38 39 40 41 42 43 44 45 46 47 48 49 50

000
ASUS43 KMKX 260600
RWRWI

WISCONSIN REGIONAL WEATHER ROUNDUP
NATIONAL WEATHER SERVICE MILWAUKEE/SULLIVAN WI
100 AM CDT WED APR 26 2017

NOTE: "FAIR" INDICATES FEW OR NO CLOUDS BELOW 12,000 FEET WITH NO
SIGNIFICANT WEATHER AND/OR OBSTRUCTIONS TO VISIBILITY.

WIZ001-002-006>008-014>016-023>028-260700-
NORTHWEST WISCONSIN

CITY           SKY/WX    TMP DP  RH WIND       PRES   REMARKS
SUPERIOR ARPT  LGT RAIN  36  35  96 E15G26    29.72F WCI  27
ASHLAND        RAIN      32  31  96 NE20G26   29.75S FOG     WCI  20
6HR MIN TEMP:  32; 6HR MAX TEMP:  40; 6HR PCP:  0.14;

HAYWARD        CLOUDY    34  32  92 NE13      29.65S WCI  25
6HR MIN TEMP:  34; 6HR MAX TEMP:  48; 6HR PCP:  0.28;

SIREN          LGT RAIN  38  36  93 NE14G24   29.62S WCI  29
CUMBERLAND     CLOUDY    39  37  93 NE15G23   29.58F WCI  31
RICE LAKE      RAIN      42  41  94 N12       29.59F
6HR MIN TEMP:  42; 6HR MAX TEMP:  57; 6HR PCP:  0.25;

CHETEK         CLOUDY    43  42  97 NE8       29.57F
LADYSMITH      CLOUDY    43  40  91 N10       29.61F
EAU CLAIRE     RAIN      53  52  96 NE16G24   29.51F FOG
MENOMONIE      LGT RAIN  52  51  96 NE14      29.53F
NEW RICHMOND   CLOUDY    46  44  93 NE14      29.55S
OSCEOLA        LGT RAIN  44  44 100 NE13G21   29.59S
$$

WIZ003>005-009-010-017-018-260700-
NORTH CENTRAL WISCONSIN

CITY           SKY/WX    TMP DP  RH WIND       PRES   REMARKS
MANITOWISH WTR CLOUDY    34  34 100 NE6       29.66R WCI  29
ARBOR VITAE    HVY RAIN  39  37  93 N6        29.63F WCI  35
WOODRUFF       HVY RAIN  39  37  93 N6        29.63F WCI  35
RHINELANDER    LGT RAIN  48  48 100 NE8       29.60F
6HR MIN TEMP:  48; 6HR MAX TEMP:  68; 6HR PCP:  0.13;

EAGLE RIVER    LGT RAIN  40  40 100 NE12      29.63S WCI  33
LAND O LAKES   LGT RAIN  37  37  98 N8        29.67F WCI  31
PHILLIPS       LGT RAIN  39  39 100 NE13      29.60F WCI  32
6HR MIN TEMP:  39; 6HR MAX TEMP:  58; 6HR PCP:  0.12;

TOMAHAWK       LGT RAIN  50  49  94 NW6       29.60S
MEDFORD        LGT RAIN  53  51  95 NE10      29.53F
MERRILL        DRIZZLE   54  54 100 NE8       29.57F
$$

WIZ029-030-035-036-043>047-260700-
CENTRAL WISCONSIN

CITY           SKY/WX    TMP DP  RH WIND       PRES   REMARKS
WAUSAU         LGT RAIN  56  53  90 NE9       29.51F
6HR MIN TEMP:  56; 6HR MAX TEMP:  61; 6HR PCP:  0.02;

MOSINEE        CLOUDY    55  52  88 NE9       29.53F
MARSHFIELD     LGT RAIN  56  51  84 NE8       29.50F
6HR MIN TEMP:  55; 6HR MAX TEMP:  56; 6HR PCP: TRACE;

STEVENS POINT  CLOUDY    60  51  73 E9        29.51F
WAUPACA        DRIZZLE   63  54  72 E15       29.51F
WAUTOMA        CLOUDY    64  53  67 E7        29.49F
6HR MIN TEMP:  63; 6HR MAX TEMP:  70;

WISC RAPIDS    CLOUDY    61  53  75 CALM      29.49F
6HR MIN TEMP:  60; 6HR MAX TEMP:  62;

CAMP DOUGLAS   NOT AVBL
$$

WIZ011>013-019>022-031-037>040-048>050-260700-
NORTHEAST WISCONSIN

CITY           SKY/WX    TMP DP  RH WIND       PRES   REMARKS
ANTIGO         DRIZZLE   53  50  90 E10       29.58F
SHAWANO        DRIZZLE   58  53  84 E13       29.58S
OCONTO         CLOUDY    51  45  81 NE8       29.59F
STURGEON BAY   CLOUDY    52  45  77 E10       29.59F
6HR MIN TEMP:  50; 6HR MAX TEMP:  61;

GREEN BAY      LGT RAIN  56  53  90 E12       29.56F
6HR MIN TEMP:  56; 6HR MAX TEMP:  65; 6HR PCP:  0.02;

MANITOWOC      NOT AVBL
APPLETON       LGT RAIN  61  50  67 E10G17    29.53F
CLINTONVILLE   LGT RAIN  57  54  88 E7        29.55S
OSHKOSH        CLOUDY    62  52  69 SE10      29.52F
6HR MIN TEMP:  61; 6HR MAX TEMP:  66;

$$

WIZ032>034-041-042-053>061-260700-
SOUTHWEST WISCONSIN

CITY           SKY/WX    TMP DP  RH WIND       PRES   REMARKS
LA CROSSE      RAIN      57  55  93 CALM      29.48R FOG
6HR MIN TEMP:  57; 6HR MAX TEMP:  62; 6HR PCP:  0.04;

SPARTA         CLOUDY    56  53  88 SW5       29.49R
VIROQUA        CLOUDY    57  53  88 SW3       29.48F
6HR MIN TEMP:  57; 6HR MAX TEMP:  65; 6HR PCP:  0.01;

BOSCOBEL       LGT RAIN  60  56  86 CALM      29.47S
6HR MIN TEMP:  60; 6HR MAX TEMP:  74; 6HR PCP:  0.01;

PRAIRIE DU CHI LGT RAIN  58  56  93 CALM      29.46F
PLATTEVILLE    CLOUDY    62  54  75 SW6       29.48R
$$

WIZ056-057-062-063-064-067-068-260700-
SOUTH CENTRAL WISCONSIN

CITY           SKY/WX    TMP DP  RH WIND       PRES   REMARKS
REEDSBURG      CLOUDY    63  52  66 SE3       29.46F
BARABOO/DELLS  LGT RAIN  63  50  62 S5        29.47S
LONE ROCK      NOT AVBL
MINERAL POINT  RAIN      63  52  67 S10       29.49R
MADISON        CLOUDY    65  50  58 SE9       29.47F
6HR MIN TEMP:  65; 6HR MAX TEMP:  71;

MIDDLETON      CLOUDY    66  51  57 SE6       29.48S
WATERTOWN      CLOUDY    63  53  69 SE10      29.50F
MONROE         CLOUDY    64  50  59 SE10      29.47S
JANESVILLE     CLOUDY    68  50  52 SE9       29.48F
$$

WIZ051-052-058>065-066-070>072-260700-
SOUTHEAST WISCONSIN

CITY           SKY/WX    TMP DP  RH WIND       PRES   REMARKS
MILWAUKEE      CLOUDY    59  51  75 SE13      29.55F
6HR MIN TEMP:  57; 6HR MAX TEMP:  62;

WAUKESHA       CLOUDY    61  50  67 SE12G17   29.55S
MILWAUKEE/TIMM CLOUDY    61  48  63 SE10      29.55F
RACINE         CLOUDY    56  48  74 S9        29.57F
6HR MIN TEMP:  56; 6HR MAX TEMP:  61;

KENOSHA        CLOUDY    59  51  75 SE8       29.54F
6HR MIN TEMP:  59; 6HR MAX TEMP:  64;

FOND DU LAC    CLOUDY    62  50  64 SE16      29.51F
6HR MIN TEMP:  62; 6HR MAX TEMP:  68;

SHEBOYGAN      CLOUDY    55  50  83 NE6       29.56F
6HR MIN TEMP:  52; 6HR MAX TEMP:  60;

WEST BEND      CLOUDY    59  50  72 SE6       29.55F
JUNEAU         CLOUDY    62  52  71 E10       29.52F
$$

LSZ147-162-260700-
LAKE SUPERIOR

STATION/POSITION TIME  TEMP    WIND        PRES    WAVE
                       AIR SEA DIR/SP/G            HT/PER
                 (UTC) (F)     (DEG/KT/KT) (MB)    (FT/S)
DEVILS ISLAND    0500   33      60/ 29/ 32 1009.3F
SAXON HARBOR     0540   35      40/ 24/ 28 1007.1S
$$

LMZ867-665-643>646-260700-
LAKE MICHIGAN

STATION/POSITION TIME  TEMP    WIND        PRES    WAVE
                       AIR SEA DIR/SP/G            HT/PER
                 (UTC) (F)     (DEG/KT/KT) (MB)    (FT/S)
CHAMBERS ISLAND  0540   40      10/ 10/ 12 1003.4F
N MID LAKE BUOY  0450   40 37   90/  6/  8 1005.4F   2/ 4
NORTHPORT PIER   0540   44     110/  2/  5 1003.7F
KEWAUNEE LAKESHO 0530   49      20/  6/  9 1001.7F
SHEBOYGAN LAKESH 0500   50     170/  2/  3 1001.4F
PORT WASHINGTON  0530   56     200/  5/  8 1001.7F
MILWAUKEE LAKESH 0530   51     170/  6/  7   N/A
S MID LAKE BUOY  0450   49 42   70/ 10/ 10 1002.3F   0
KENOSHA   LAKESH 0500   52     160/  8/ 10 1001.4
$$

TC  - TEMPERATURE IN CELSIUS
VSB - VISIBILITY IN STATUTE MILES
WCI - WIND CHILL INDEX
HX  - HEAT INDEX





USA.gov is the U.S. government's official web portal to all federal, state and local government web resources and services.